This is the latest recevied weather packets stored in our database for station/object WW5JC. If no packets are shown the sender has not sent any weather packets the latest 10 day(s).
| Time | Temp. | Humidity | Pressure | Rain* | Wind** | Luminosity | Snow |
|---|---|---|---|---|---|---|---|
| 1788192794 | 33.89° C | 48% | 1019.9 hPa | 0 mm | - | 512 W/m² | - |
| 1788192494 | 33.89° C | 48% | 1019.9 hPa | 0 mm | - | 504 W/m² | - |
| 1788192188 | 33.89° C | 49% | 1020 hPa | 0 mm | - | 494 W/m² | - |
| 1788191883 | 33.89° C | 49% | 1020.1 hPa | 0 mm | - | 479 W/m² | - |
| 1788191578 | 33.33° C | 49% | 1020 hPa | 0 mm | - | 469 W/m² | - |
| 1788191274 | 33.33° C | 50% | 1019.8 hPa | 0 mm | - | 456 W/m² | - |
| 1788190970 | 32.78° C | 51% | 1020.1 hPa | 0 mm | - | 442 W/m² | - |
| 1788190669 | 33.33° C | 50% | 1019.8 hPa | 0 mm | - | 439 W/m² | - |
| 1788190364 | 32.78° C | 52% | 1020 hPa | 0 mm | - | 423 W/m² | - |
| 1788190059 | 32.78° C | 53% | 1019.9 hPa | 0 mm | - | 406 W/m² | - |
| 1788189755 | 32.78° C | 53% | 1019.7 hPa | 0 mm | - | 399 W/m² | - |
| 1788189450 | 32.22° C | 53% | 1019.7 hPa | 0 mm | - | 386 W/m² | - |
| 1788189149 | 32.22° C | 53% | 1019.7 hPa | 0 mm | - | 373 W/m² | - |
| 1788188844 | 32.22° C | 56% | 1019.7 hPa | 0 mm | - | 359 W/m² | - |
| 1788188539 | 31.67° C | 57% | 1019.5 hPa | 0 mm | - | 345 W/m² | - |
| 1788188234 | 32.22° C | 57% | 1019.6 hPa | 0 mm | - | 332 W/m² | - |
| 1788187930 | 32.22° C | 57% | 1019.7 hPa | 0 mm | - | 316 W/m² | - |
| 1788187626 | 32.22° C | 56% | 1019.9 hPa | 0 mm | - | 304 W/m² | - |
| 1788187322 | 31.67° C | 59% | 1019.7 hPa | 0 mm | - | 287 W/m² | - |
| 1788187021 | 31.67° C | 60% | 1019.7 hPa | 0 mm | - | 277 W/m² | - |
| 1788186716 | 31.11° C | 63% | 1019.7 hPa | 0 mm | - | 263 W/m² | - |
| 1788186413 | 31.11° C | 63% | 1019.6 hPa | 0 mm | - | 247 W/m² | - |
| 1788186108 | 30.56° C | 64% | 1019.5 hPa | 0 mm | - | 237 W/m² | - |
| 1788185807 | 30° C | 66% | 1019.5 hPa | 0 mm | - | 226 W/m² | - |
| 1788185502 | 30° C | 67% | 1019.2 hPa | 0 mm | - | 212 W/m² | - |
* Rain latest hour (hover to see other rain measurements)
** Current wind speed in m/s (hover to see current wind gust speed)